Regional Weather Roundup
Issued by NWS Kansas City/Pleasant Hill, MO

Home | Current Version | Previous Version | Text Only | Print | Product List | Glossary On
Versions: 1 2 3 4 5 6 7 8 9 10 11 12 13 14 15 16 17 18 19 20 21 22 23 24 25 26 27 28 29 30 31 32 33 34 35 36 37 38 39 40 41 42 43 44 45 46 47 48 49 50
000
ASUS43 KEAX 220711
RWREAX

WEATHER ROUNDUP FOR EASTERN KANSAS AND NORTHWEST MISSOURI
NATIONAL WEATHER SERVICE KANSAS CITY/PLEASANT HILL MO
200 AM CDT MON SEP 22 2014

KSZ040-057-103>105-MOZ028-029-037-043-220800-
...KANSAS CITY METROPOLITAN AREA...

CITY           SKY/WX    TMP DP  RH WIND       PRES   REMARKS
K.C. INTL      CLEAR     56  49  77 N3        30.27R
K.C. DOWNTOWN  CLEAR     57  51  80 N3        30.26R
LEES SUMMIT    CLEAR     53  49  86 CALM      30.27R
OLATHE - IXD   CLEAR     53  49  86 N3        30.27R
OLATHE - OJC   CLEAR     56  49  77 N5        30.26R
LAWRENCE       CLEAR     49  47  93 NW5       30.27S

$$

MOZ001>008-011>017-020>025-030>033-038>040-044>046-053-054-220800-
...NORTHERN AND CENTRAL MISSOURI...

CITY           SKY/WX    TMP DP  RH WIND       PRES   REMARKS
ST. JOSEPH     CLEAR     48  47  96 CALM      30.28R
MOSBY          SUNNY     50  50 100 CALM      30.26S
WHITEMAN AFB   CLEAR     54  49  85 N2        30.24R
CLINTON        CLEAR     55  52  88 CALM      30.25R
SEDALIA        CLEAR     55  49  80 NW3       30.25R
WARSAW         NOT AVBL
MARSHALL       CLEAR     55  52  88 N6        30.25S
CHILLICOTHE      N/A     52  49  89 CALM      30.26S
MOBERLY        CLEAR     50  46  87 NW3       30.24S
KIRKSVILLE     CLEAR     53  48  83 N5        30.24S

$$

MOZ041-047>049-056>058-063>065-088>090-097-220800-
...EASTERN AND SOUTHERN MISSOURI...

CITY           SKY/WX    TMP DP  RH WIND       PRES   REMARKS
ST. LOUIS INTL CLEAR     56  50  80 NW3       30.19S
SPIRIT OF STL  CLEAR     52  50  93 CALM      30.18S
COLUMBIA       CLEAR     53  50  89 N5        30.23R
JEFFERSON CITY CLEAR     55  50  83 NW5       30.22R
MEXICO         CLEAR    N/A N/A N/A NW5       30.22R
HANNIBAL       CLEAR     52  48  87 NW3       30.22R
ROLLA          CLEAR     52  48  86 N3        30.20S
LEBANON        CLEAR     55  48  76 N5        30.23S
OSAGE BEACH    CLEAR     55  46  71 N3        30.23R
SPRINGFIELD    CLEAR     55  49  80 N5        30.22S
BRANSON        CLEAR     52  48  87 CALM      30.22S
NEVADA         CLEAR     52  50  93 N5        30.26S
JOPLIN         CLEAR     56  51  84 NE3       30.24S
WEST PLAINS    CLEAR     55  47  74 N5        30.21S

$$

IAZ060-094-KSZ022-034>040-054-083-096-NEZ052-066-093-220800-
...KANSAS...SOUTHEAST NEBRASKA AND IOWA...

CITY           SKY/WX    TMP DP  RH WIND       PRES   REMARKS
TOPEKA         CLEAR     55  50  83 NE6       30.27S
MANHATTAN      CLEAR     49  47  93 CALM      30.29R
EMPORIA        CLEAR     54  50  86 NW3       30.28R
CHANUTE        CLEAR     54  50  86 N5        30.26R
WICHITA        PTCLDY    63  46  54 NE9       30.26S
OMAHA          CLEAR     52  50  93 CALM      30.29R
LINCOLN        CLEAR     48  45  89 CALM      30.30S
FALLS CITY     CLEAR     49  47  93 CALM      30.28R
LAMONI         CLEAR     48  46  93 W5        30.26R
DES MOINES     CLEAR     54  48  80 N5        30.26R

$$



USA.gov is the U.S. government's official web portal to all federal, state and local government web resources and services.